TECHNOSAT (42829 NORAD) Tracking and Keplerian Element Data

This shows tracking and keplerian element data for the satellite.

Feedback or suggestion? Click here.




ElementValue
Catalog42829
NameTECHNOSAT
Epoch Orbit16231
Epoch Day189.75034904
Epoch Year2020
RAAN70.575
Inclination97.5174
Eccentricity0.0013243
Argument of Perigee212.1865
Mean Anonmoly147.8547
Mean Motion14.91108817
Decay Rate2.25E-06
L11 42829U 17042E 20189.75034904 .00000225 00000-0 27971-4 0 9990
L22 42829 97.5174 70.5750 0013243 212.1865 147.8547 14.91108817162311

Live tracking and technical data element details for TECHNOSAT (NORAD 42829). TECHNOSAT can be tracked NOW for your location showing map with azimuth and elevation plus other details from your city location.

Track the satellite on the map from your city or location and see movement details for azimuth, elevation, latitude, longitude, range, height, and movement on the map or in text.







IsCatalogInMostPopularTable: catalog: 42829, numindb: 545
Update: records affected: 1



GetName: 42829 TECHNOSAT

Hit Count: updated at: Wed, 08 Jul 2020 22:47:50 GMT